Alamogordo, NM

2:30 PM MDT on October 16, 2019 (GMT -0600)
Alamogordo-White Sands Regional

Weather History for KALM - July, 2019

Change the Weather History Date:

Sunday, July 21, 2019

  Actual Average Record
Temperature  
Mean Temperature 84 °F -  
Max Temperature 98 °F 92 °F 105 °F (1981)
Min Temperature 69 °F 66 °F 58 °F (1974)
Cooling Degree Days 18    
Growing Degree Days 34 (Base 50)    
Moisture  
Dew Point 44 °F    
Average Humidity 24    
Maximum Humidity 41    
Minimum Humidity 11    
Precipitation  
Precipitation 0.00 in - - ()
Sea Level Pressure  
Sea Level Pressure 30.02 in    
Wind  
Wind Speed 6 mph (SE)    
Max Wind Speed 28 mph    
Max Gust Speed 40 mph    
Visibility 10 miles    
Events      
Averages and records for this station are not official NWS values.
T = Trace of Precipitation, MM = Missing Value Source: NWS Daily Summary

Daily Weather History Graph

Daily Weather History Graph

Search for Another Location

Airport or City:

Astronomy

Jul. 21, 2019 Rise Set
Actual Time 6:10 AM MDT 8:10 PM MDT
Civil Twilight 5:42 AM MDT 8:37 PM MDT
Nautical Twilight 5:09 AM MDT 9:11 PM MDT
Astronomical Twilight 4:33 AM MDT 9:47 PM MDT
Moon 11:19 PM MDT (7/21) 10:21 AM MDT (7/21)
Length of Visible Light 14h 55m
Length of Day
13h 59m
Waning Gibbous, 80% of the Moon is Illuminated
Jul 21
Waning Gibbous
Jul 24
Last Quarter
Jul 31
New
Aug 7
First Quarter
Aug 15
Full

Hourly Weather History & Observations

Time (MDT) Temp. Dew Point Humidity Pressure Visibility Wind Dir Wind Speed Gust Speed Precip Events Conditions
12:15 AM 80.6 °F 42.8 °F 26% 29.98 in 10.0 mi Calm Calm - N/A   Clear
12:35 AM 82.4 °F 42.8 °F 25% 29.98 in 10.0 mi Calm Calm - N/A   Clear
12:55 AM 80.6 °F 42.8 °F 26% 29.97 in 10.0 mi Calm Calm - N/A   Clear
1:15 AM 80.6 °F 41.0 °F 24% 29.97 in 10.0 mi NE 3.5 mph - N/A   Clear
1:35 AM 78.8 °F 41.0 °F 26% 29.96 in 10.0 mi NE 3.5 mph - N/A   Clear
1:55 AM 75.2 °F 44.6 °F 34% 29.97 in 10.0 mi SSE 3.5 mph - N/A   Clear
2:15 AM 75.2 °F 42.8 °F 31% 29.97 in 10.0 mi Calm Calm - N/A   Clear
2:35 AM 77.0 °F 44.6 °F 32% 29.97 in 10.0 mi South 6.9 mph - N/A   Clear
2:55 AM 73.4 °F 44.6 °F 36% 29.97 in 10.0 mi SE 8.1 mph - N/A   Clear
3:15 AM 73.4 °F 44.6 °F 36% 29.97 in 10.0 mi SSE 5.8 mph - N/A   Clear
3:35 AM 75.2 °F 44.6 °F 34% 29.97 in 10.0 mi South 5.8 mph - N/A   Clear
3:55 AM 73.4 °F 44.6 °F 36% 29.98 in 10.0 mi WSW 4.6 mph - N/A   Clear
4:15 AM 75.2 °F 44.6 °F 34% 29.98 in 10.0 mi Calm Calm - N/A   Clear
4:35 AM 75.2 °F 46.4 °F 36% 29.99 in 10.0 mi South 4.6 mph - N/A   Clear
4:55 AM 71.6 °F 44.6 °F 38% 29.99 in 10.0 mi Calm Calm - N/A   Clear
5:15 AM 73.4 °F 46.4 °F 38% 30.00 in 10.0 mi Calm Calm - N/A   Clear
5:35 AM 71.6 °F 44.6 °F 38% 30.00 in 10.0 mi SSE 3.5 mph - N/A   Clear
5:55 AM 69.8 °F 44.6 °F 40% 30.00 in 10.0 mi ENE 3.5 mph - N/A   Clear
6:15 AM 71.6 °F 46.4 °F 41% 30.01 in 10.0 mi SSE 5.8 mph - N/A   Clear
6:35 AM 71.6 °F 44.6 °F 38% 30.01 in 10.0 mi NNE 5.8 mph - N/A   Clear
6:55 AM 73.4 °F 46.4 °F 38% 30.03 in 10.0 mi NNE 6.9 mph - N/A   Clear
7:15 AM 75.2 °F 46.4 °F 36% 30.03 in 10.0 mi NE 5.8 mph - N/A   Clear
7:35 AM 78.8 °F 48.2 °F 34% 30.04 in 10.0 mi Calm Calm - N/A   Clear
7:55 AM 80.6 °F 48.2 °F 32% 30.04 in 10.0 mi SSW 3.5 mph - N/A   Clear
8:15 AM 84.2 °F 48.2 °F 29% 30.04 in 10.0 mi South 5.8 mph - N/A   Clear
8:35 AM 84.2 °F 48.2 °F 29% 30.04 in 10.0 mi South 9.2 mph - N/A   Clear
8:55 AM 86.0 °F 48.2 °F 27% 30.05 in 10.0 mi South 13.8 mph - N/A   Clear
9:15 AM 86.0 °F 48.2 °F 27% 30.05 in 10.0 mi South 8.1 mph - N/A   Clear
9:35 AM 87.8 °F 48.2 °F 25% 30.05 in 10.0 mi South 6.9 mph - N/A   Clear
9:55 AM 89.6 °F 46.4 °F 22% 30.05 in 10.0 mi SW 5.8 mph - N/A   Clear
10:15 AM 89.6 °F 46.4 °F 22% 30.05 in 10.0 mi SSW 6.9 mph - N/A   Clear
10:35 AM 91.4 °F 46.4 °F 21% 30.05 in 10.0 mi South 5.8 mph - N/A   Clear
10:55 AM 91.4 °F 46.4 °F 21% 30.05 in 10.0 mi South 4.6 mph - N/A   Clear
11:15 AM 93.2 °F 46.4 °F 20% 30.05 in 10.0 mi SW 6.9 mph - N/A   Clear
11:35 AM 95.0 °F 46.4 °F 19% 30.05 in 10.0 mi SSE 4.6 mph - N/A   Clear
11:55 AM 95.0 °F 46.4 °F 19% 30.05 in 10.0 mi SSE 6.9 mph - N/A   Clear
12:15 PM 93.2 °F 46.4 °F 20% 30.05 in 10.0 mi Calm Calm - N/A   Clear
12:35 PM 93.2 °F 46.4 °F 20% 30.04 in 10.0 mi SE 5.8 mph - N/A   Clear
12:55 PM 95.0 °F 46.4 °F 19% 30.04 in 10.0 mi North 4.6 mph - N/A   Clear
1:15 PM 96.8 °F 46.4 °F 18% 30.03 in 10.0 mi WSW 3.5 mph - N/A   Clear
1:35 PM 98.6 °F 44.6 °F 16% 30.03 in 10.0 mi Calm Calm - N/A   Clear
1:55 PM 96.8 °F 46.4 °F 18% 30.04 in 10.0 mi SE 9.2 mph 17.3 mph N/A   Clear
2:15 PM 95.0 °F 44.6 °F 18% 30.04 in 10.0 mi East 13.8 mph 18.4 mph N/A   Clear
2:35 PM 91.4 °F 41.0 °F 17% 30.04 in 10.0 mi East 26.5 mph 35.7 mph N/A   Clear
2:55 PM 91.4 °F 39.2 °F 16% 30.04 in 10.0 mi ENE 24.2 mph 39.1 mph N/A   Clear
3:15 PM 89.6 °F 42.8 °F 20% 30.03 in 8.0 mi East 27.6 mph 40.3 mph N/A   Clear
3:35 PM 89.6 °F 42.8 °F 20% 30.01 in 10.0 mi ENE 21.9 mph 34.5 mph N/A   Clear
3:55 PM 91.4 °F 41.0 °F 17% 30.01 in 10.0 mi ENE 19.6 mph 35.7 mph N/A   Clear
4:15 PM 93.2 °F 41.0 °F 16% 30.00 in 10.0 mi ENE 13.8 mph 23.0 mph N/A   Clear
4:35 PM 95.0 °F 39.2 °F 14% 29.99 in 10.0 mi ENE 12.7 mph - N/A   Clear
4:55 PM 96.8 °F 35.6 °F 12% 29.99 in 10.0 mi ENE 6.9 mph - N/A   Clear
5:15 PM 96.8 °F 37.4 °F 13% 29.99 in 10.0 mi ENE 9.2 mph - N/A   Clear
5:35 PM 98.6 °F 37.4 °F 12% 29.98 in 10.0 mi ESE 5.8 mph - N/A   Clear
5:55 PM 98.6 °F 35.6 °F 11% 29.98 in 10.0 mi Calm Calm - N/A   Clear
6:15 PM 96.8 °F 37.4 °F 13% 29.98 in 10.0 mi West 5.8 mph - N/A   Clear
6:35 PM 93.2 °F 42.8 °F 17% 29.99 in 10.0 mi South 15.0 mph 19.6 mph N/A   Clear
6:55 PM 95.0 °F 42.8 °F 16% 29.99 in 10.0 mi South 4.6 mph - N/A   Clear
7:15 PM 93.2 °F 44.6 °F 19% 29.99 in 10.0 mi South 13.8 mph - N/A   Clear
7:35 PM 91.4 °F 44.6 °F 20% 30.00 in 10.0 mi SSW 9.2 mph - N/A   Clear
7:55 PM 91.4 °F 41.0 °F 17% 30.01 in 10.0 mi NW 17.3 mph 23.0 mph N/A   Clear
8:15 PM 91.4 °F 41.0 °F 17% 30.02 in 10.0 mi NW 9.2 mph - N/A   Clear
8:35 PM 89.6 °F 39.2 °F 17% 30.02 in 10.0 mi NNW 6.9 mph - N/A   Clear
8:55 PM 86.0 °F 41.0 °F 20% 30.02 in 10.0 mi NW 5.8 mph - N/A   Clear
9:15 PM 84.2 °F 41.0 °F 22% 30.03 in 10.0 mi NNW 4.6 mph - N/A   Clear
9:35 PM 84.2 °F 41.0 °F 22% 30.04 in 10.0 mi NE 8.1 mph - N/A   Clear
9:55 PM 84.2 °F 41.0 °F 22% 30.05 in 10.0 mi NNE 5.8 mph - N/A   Clear
10:15 PM 84.2 °F 41.0 °F 22% 30.05 in 10.0 mi ENE 6.9 mph - N/A   Clear
10:35 PM 86.0 °F 41.0 °F 20% 30.06 in 10.0 mi ENE 13.8 mph 20.7 mph N/A   Clear
10:55 PM 87.8 °F 42.8 °F 21% 30.05 in 10.0 mi East 13.8 mph 23.0 mph N/A   Clear
11:15 PM 89.6 °F 42.8 °F 20% 30.05 in 10.0 mi East 13.8 mph 20.7 mph N/A   Clear
11:35 PM 89.6 °F 44.6 °F 21% 30.05 in 10.0 mi East 16.1 mph 25.3 mph N/A   Clear
11:55 PM 89.6 °F 46.4 °F 22% 30.04 in 10.0 mi East 20.7 mph 28.8 mph N/A   Clear